TITAN 3C TRANSTAGE DEB, 26048

Orbit data source: Space-Track

TITAN 3C TRANSTAGE DEB, 26048 is space debris in HEO originally from a launch on Tue, 21 Dec 1965 UTC launched from the Air Force Eastern Test Range (AFETR). Debris objects in space refer to the collection of defunct objects orbiting the Earth. Examples of debris include non-operational satellites, rocket bodies, and fragments generated from explosions, collisions, or faulty payload assembly.

Loading next visibility...
Identifier
26048, 1965-108AG
Orbit
HEO
Last TLE update
14 hours ago
Origin
Manufacturer
Unknown
Mission
Spacecraft
Bus & Motor
Unknown
Mass
Unknown
Launch date (UTC)
1965-12-21 (60 years ago)
Launch vehicle
Unknown
Launch site
Air Force Eastern Test Range (AFETR)
Object type
Payload
Rocket body
Debris
Shape & HBR
Unknown
Radar Cross Section
Medium (>0.1 m² and <1 m²)

Expand to show TLE details & history

TLE from 14 hours ago
0 TITAN 3C TRANSTAGE DEB
1 26048U 65108AG  25199.41421606  .00004231  00000-0  16220-2 0  9993
2 26048  26.4879 295.0066 6268651 174.4058 199.0299  3.61874311321288
Epoch: 2025-07-18T09:56Z
TLE epoch observation values (Epoch: 2025-07-18T09:56:28.267Z)
Latitude
0.00004°
Longitude
-150.57351°
Altitude
22,549.709 km
Speed
2.306 km/s
True Right ascension
19h 40m 02s
True Declination
0° 00' 00"
Sunlit
Object was in daylight at epoch
Visualization orbit readout
Latitude
4.43226°
Longitude
-142.01703°
Altitude
21,210.485 km
Speed
2.58 km/s
Apparent Right ascension
20h 48m 18s
Apparent Declination
-3° 42' 46"
Sunlit
Object is in daylight
Visualization observer readout
Local Sidereal Time
12:33:08
Azimuth
69.718° E
Elevation
-27.856°
Doppler factor
1
Orbital elements
Apogee altitude
22,782.936 km
Perigee altitude
310.195 km
Semi-major axis
17,924.702 km
Eccentricity
0.62687
Inclination
26.4879°
RAAN
295.0066°
Arg. of periapsis
174.4058°
True anomaly
185.63223°
Mean anomaly
199.0299°
Eccentric anomaly
191.72878°
Mean motion
0.90441 °/min
Orbital period
398.05 mins
BSTAR
0.001622
Loading maneuver chart data...
Loading SW <> Apogee altitude chart data...
|